sat.trackr.live / text

‹ back to catalog

STARLINK-36955

NORAD 68701 · 2026-081C

PAYLOAD ACTIVE UNKNOWN

§ Identity

Operator
Country
US
Launch date
2026-04-14
Launch site
AFETR
Launch vehicle
Mass (kg)
RCS (m²)

Purposes: comms

External: N2YO · Heavens-Above · Gunter

§ Orbital elements

Epoch: 2026-09-19T14:00:32.883552Z

Period
93.85 min
Inclination
53.1590°
Eccentricity
0.0000766
Mean motion
15.34379352 rev/d
Perigee alt
462.2 km
Apogee alt
463.3 km
Semi-major
6,840.9 km
B*
4.4298e-4
RAAN
210.2989°
Arg perigee
96.8073°
Mean anomaly
263.3017°
Rev number
2,447

§ Raw data

STARLINK-369551 68701U 26081C   26262.58371393  .00014610  00000+0  44298-3 0  99972 68701  53.1590 210.2989 0000766  96.8073 263.3017 15.34379352 24471

JSON: /api/v1/satellites/68701 · /tle

For live sub-satellite position, see the globe view (requires WebGL).

§ Visibility from observer

Set your observer location to see the next 7 days of passes ≥ 10°. The values pass through the URL so the page stays shareable.

No JS? Fill the form by hand. The geolocation button needs JavaScript.